| time (UTC) | temp F | wind direction | speed knots | gust knots | rain 1hr in | rain 24hr in | rain mn in | humidity % | barometer mb |
| 20260508041721 | 52 | 9 | 0.0 | 0.0 | 0.00 | 0.08 | 0.00 | 75 | 1010.6 |
| 20260508041219 | 53 | 9 | 0.0 | 0.0 | 0.00 | 0.08 | 0.00 | 75 | 1010.6 |
| 20260508040719 | 53 | 9 | 0.0 | 0.0 | 0.00 | 0.08 | 0.00 | 74 | 1010.6 |
| 20260508040220 | 53 | 9 | 0.0 | 0.0 | 0.00 | 0.08 | 0.00 | 74 | 1010.5 |
| 20260508035719 | 54 | 9 | 0.0 | 2.6 | 0.00 | 0.08 | 0.00 | 73 | 1010.5 |
| 20260508035219 | 53 | 40 | 0.0 | 2.6 | 0.00 | 0.08 | 0.00 | 73 | 1010.5 |
| 20260508034720 | 53 | 326 | 0.0 | 3.5 | 0.00 | 0.08 | 0.08 | 72 | 1010.5 |
| 20260508034219 | 54 | 8 | 0.0 | 2.6 | 0.00 | 0.08 | 0.08 | 72 | 1010.5 |
| 20260508033719 | 54 | 316 | 2.6 | 3.5 | 0.00 | 0.08 | 0.08 | 71 | 1010.4 |
| 20260508033219 | 54 | 329 | 0.0 | 3.5 | 0.00 | 0.08 | 0.08 | 71 | 1010.4 |
| 20260508032719 | 54 | 331 | 0.0 | 3.5 | 0.00 | 0.08 | 0.08 | 71 | 1010.3 |
| 20260508032400 | 54 | 295 | 0.9 | 1.7 | 0.00 | 0.08 | 0.08 | 70 | 1010.4 |
| 20260508032219 | 54 | 295 | 0.9 | 1.7 | 0.00 | 0.08 | 0.08 | 70 | 1010.4 |
| 20260508031720 | 54 | 274 | 0.0 | 2.6 | 0.00 | 0.08 | 0.08 | 70 | 1010.4 |
| 20260508031220 | 54 | 322 | 0.9 | 0.9 | 0.00 | 0.08 | 0.08 | 69 | 1010.3 |
| 20260508030719 | 55 | 300 | 0.0 | 2.6 | 0.00 | 0.08 | 0.08 | 69 | 1010.3 |
| 20260508030254 | 55 | 330 | 0.9 | 1.7 | 0.00 | 0.08 | 0.08 | 68 | 1010.3 |
| 20260508030219 | 55 | 330 | 0.9 | 1.7 | 0.00 | 0.08 | 0.08 | 68 | 1010.3 |
| 20260508025719 | 55 | 313 | 1.7 | 2.6 | 0.00 | 0.08 | 0.08 | 68 | 1010.3 |
| 20260508025220 | 55 | 302 | 0.9 | 3.5 | 0.00 | 0.08 | 0.08 | 68 | 1010.3 |
| 20260508024720 | 55 | 298 | 0.0 | 2.6 | 0.00 | 0.08 | 0.08 | 68 | 1010.3 |
| 20260508024512 | 55 | 317 | 0.9 | 2.6 | 0.00 | 0.08 | 0.08 | 68 | 1010.3 |
| 20260508024330 | 55 | 317 | 0.9 | 2.6 | 0.00 | 0.08 | 0.08 | 68 | 1010.3 |
| 20260508024220 | 55 | 317 | 0.9 | 2.6 | 0.00 | 0.08 | 0.08 | 68 | 1010.3 |
| 20260508023719 | 55 | 303 | 0.9 | 2.6 | 0.00 | 0.08 | 0.08 | 67 | 1010.3 |
| 20260508023219 | 55 | 291 | 0.0 | 0.0 | 0.00 | 0.08 | 0.08 | 67 | 1010.3 |
| 20260508022720 | 55 | 291 | 0.0 | 1.7 | 0.00 | 0.08 | 0.08 | 66 | 1010.3 |
| 20260508022219 | 55 | 303 | 0.0 | 0.0 | 0.00 | 0.08 | 0.08 | 66 | 1010.4 |
| 20260508021719 | 55 | 303 | 0.0 | 0.0 | 0.00 | 0.08 | 0.08 | 65 | 1010.4 |
| 20260508021223 | 55 | 303 | 0.0 | 0.9 | 0.00 | 0.08 | 0.08 | 65 | 1010.4 |
| 20260508020719 | 55 | 248 | 0.0 | 1.7 | 0.00 | 0.08 | 0.08 | 65 | 1010.4 |
| 20260508020219 | 56 | 343 | 0.9 | 1.7 | 0.00 | 0.08 | 0.08 | 65 | 1010.3 |
| 20260508015719 | 55 | 334 | 0.0 | 1.7 | 0.00 | 0.08 | 0.08 | 65 | 1010.3 |
| 20260508015219 | 56 | 281 | 0.0 | 2.6 | 0.00 | 0.08 | 0.08 | 65 | 1010.4 |
| 20260508014722 | 56 | 282 | 0.0 | 0.0 | 0.00 | 0.08 | 0.08 | 65 | 1010.3 |
| 20260508014219 | 55 | 282 | 0.0 | 0.0 | 0.00 | 0.08 | 0.08 | 65 | 1010.3 |
| 20260508013719 | 55 | 282 | 0.0 | 0.0 | 0.00 | 0.08 | 0.08 | 65 | 1010.3 |
| 20260508013224 | 56 | 282 | 0.0 | 0.0 | 0.00 | 0.08 | 0.08 | 65 | 1010.2 |
| 20260508012721 | 55 | 282 | 0.0 | 0.0 | 0.00 | 0.08 | 0.08 | 65 | 1010.1 |
| 20260508012219 | 55 | 282 | 0.0 | 2.6 | 0.00 | 0.08 | 0.08 | 66 | 1010.0 |
| 20260508011719 | 55 | 285 | 0.0 | 1.7 | 0.00 | 0.08 | 0.08 | 66 | 1009.9 |
| 20260508011219 | 54 | 327 | 0.0 | 1.7 | 0.00 | 0.08 | 0.08 | 68 | 1009.8 |
| 20260508010719 | 54 | 279 | 0.0 | 0.0 | 0.00 | 0.08 | 0.08 | 68 | 1009.7 |
| 20260508010219 | 55 | 279 | 0.0 | 0.0 | 0.00 | 0.08 | 0.08 | 67 | 1009.7 |
| 20260508005719 | 54 | 279 | 0.0 | 0.0 | 0.00 | 0.08 | 0.08 | 67 | 1009.6 |
| 20260508005219 | 55 | 279 | 0.0 | 0.0 | 0.00 | 0.08 | 0.08 | 67 | 1009.5 |
| 20260508004719 | 55 | 279 | 0.0 | 0.0 | 0.00 | 0.08 | 0.08 | 66 | 1009.3 |
| 20260508004219 | 55 | 279 | 0.0 | 0.0 | 0.00 | 0.08 | 0.08 | 65 | 1009.3 |
| 20260508003719 | 55 | 279 | 0.0 | 0.0 | 0.00 | 0.08 | 0.08 | 64 | 1009.2 |
| 20260508003219 | 56 | 279 | 0.0 | 0.0 | 0.00 | 0.08 | 0.08 | 64 | 1009.2 |
| 20260508002719 | 56 | 279 | 0.0 | 0.0 | 0.00 | 0.08 | 0.08 | 63 | 1009.1 |
| 20260508002219 | 56 | 279 | 0.0 | 0.0 | 0.00 | 0.08 | 0.08 | 63 | 1009.1 |
| 20260508001719 | 56 | 279 | 0.0 | 0.0 | 0.00 | 0.08 | 0.08 | 62 | 1009.0 |
| 20260508001219 | 56 | 279 | 0.0 | 0.0 | 0.00 | 0.08 | 0.08 | 62 | 1008.9 |
| 20260508000719 | 57 | 279 | 0.0 | 0.0 | 0.00 | 0.08 | 0.08 | 62 | 1008.9 |
| 20260508000220 | 57 | 279 | 0.0 | 0.0 | 0.00 | 0.08 | 0.08 | 61 | 1008.8 |
| 20260507235719 | 57 | 279 | 0.0 | 0.0 | 0.00 | 0.08 | 0.08 | 61 | 1008.7 |
| 20260507235219 | 57 | 279 | 0.0 | 0.0 | 0.00 | 0.08 | 0.08 | 60 | 1008.7 |
| 20260507234719 | 57 | 279 | 0.0 | 0.0 | 0.00 | 0.08 | 0.08 | 60 | 1008.7 |
| 20260507233719 | 57 | 279 | 0.0 | 0.0 | 0.00 | 0.08 | 0.08 | 59 | 1008.6 |
| 20260507233219 | 57 | 279 | 0.0 | 0.0 | 0.00 | 0.08 | 0.08 | 58 | 1008.5 |
| 20260507232219 | 58 | 279 | 0.0 | 0.0 | 0.00 | 0.08 | 0.08 | 59 | 1008.3 |
| 20260507231720 | 58 | 279 | 0.0 | 0.0 | 0.00 | 0.08 | 0.08 | 58 | 1008.3 |
| 20260507231220 | 59 | 279 | 0.0 | 0.0 | 0.00 | 0.08 | 0.08 | 58 | 1008.3 |
| 20260507230721 | 59 | 279 | 0.0 | 0.0 | 0.00 | 0.08 | 0.08 | 58 | 1008.3 |
| 20260507230219 | 59 | 279 | 0.0 | 0.0 | 0.00 | 0.08 | 0.08 | 58 | 1008.2 |
| 20260507225719 | 59 | 279 | 0.0 | 0.0 | 0.00 | 0.08 | 0.08 | 56 | 1008.2 |
| 20260507225222 | 59 | 240 | 0.0 | 0.0 | 0.00 | 0.08 | 0.08 | 57 | 1008.2 |
| 20260507224720 | 60 | 240 | 0.0 | 1.7 | 0.00 | 0.08 | 0.08 | 56 | 1008.1 |
| 20260507224220 | 60 | 295 | 1.7 | 2.6 | 0.00 | 0.08 | 0.08 | 54 | 1008.2 |
| 20260507223720 | 60 | 292 | 0.9 | 2.6 | 0.00 | 0.08 | 0.08 | 54 | 1008.1 |
| 20260507223221 | 60 | 251 | 1.7 | 1.7 | 0.00 | 0.08 | 0.08 | 58 | 1008.0 |
| 20260507222720 | 60 | 199 | 0.0 | 2.6 | 0.00 | 0.08 | 0.08 | 54 | 1008.0 |
| 20260507221720 | 60 | 217 | 0.9 | 1.7 | 0.00 | 0.08 | 0.08 | 53 | 1008.0 |
| 20260507221220 | 61 | 267 | 0.9 | 1.7 | 0.00 | 0.08 | 0.08 | 54 | 1008.0 |
| 20260507220720 | 62 | 251 | 0.0 | 3.5 | 0.00 | 0.08 | 0.08 | 53 | 1008.0 |
| 20260507220220 | 61 | 303 | 2.6 | 4.3 | 0.00 | 0.08 | 0.08 | 55 | 1008.0 |
| 20260507215720 | 62 | 246 | 0.9 | 2.6 | 0.00 | 0.08 | 0.08 | 54 | 1007.7 |
| 20260507215220 | 62 | 262 | 1.7 | 2.6 | 0.00 | 0.08 | 0.08 | 50 | 1007.9 |
| 20260507214720 | 63 | 248 | 0.0 | 0.9 | 0.00 | 0.08 | 0.08 | 49 | 1008.0 |
| 20260507214220 | 63 | 125 | 0.0 | 0.9 | 0.00 | 0.08 | 0.08 | 52 | 1008.0 |
| 20260507213721 | 63 | 213 | 0.0 | 0.9 | 0.00 | 0.08 | 0.08 | 46 | 1007.9 |
| 20260507213222 | 63 | 206 | 0.0 | 1.7 | 0.00 | 0.08 | 0.08 | 47 | 1008.1 |
| 20260507212721 | 63 | 241 | 0.9 | 4.3 | 0.00 | 0.08 | 0.08 | 47 | 1008.0 |
| 20260507212220 | 63 | 236 | 0.0 | 0.0 | 0.00 | 0.08 | 0.08 | 46 | 1008.1 |
| 20260507211720 | 64 | 236 | 0.0 | 2.6 | 0.00 | 0.08 | 0.08 | 46 | 1008.1 |
| 20260507211221 | 64 | 175 | 2.6 | 2.6 | 0.00 | 0.08 | 0.08 | 38 | 1008.3 |
| 20260507210721 | 64 | 227 | 0.9 | 6.1 | 0.00 | 0.08 | 0.08 | 38 | 1008.3 |
| 20260507205722 | 64 | 127 | 0.0 | 2.6 | 0.00 | 0.08 | 0.08 | 38 | 1008.2 |
| 20260507205220 | 64 | 104 | 0.9 | 1.7 | 0.00 | 0.08 | 0.08 | 38 | 1008.2 |
| 20260507204220 | 64 | 12 | 0.9 | 4.3 | 0.00 | 0.08 | 0.08 | 40 | 1008.2 |
| 20260507203720 | 64 | 330 | 2.6 | 4.3 | 0.00 | 0.08 | 0.08 | 41 | 1008.1 |
| 20260507203222 | 64 | 80 | 0.9 | 5.2 | 0.00 | 0.08 | 0.08 | 38 | 1008.1 |
| 20260507202726 | 63 | 111 | 0.0 | 5.2 | 0.00 | 0.08 | 0.08 | 41 | 1008.1 |
| 20260507201722 | 63 | 126 | 1.7 | 5.2 | 0.00 | 0.08 | 0.08 | 38 | 1008.0 |
| 20260507201220 | 63 | 168 | 2.6 | 4.3 | 0.00 | 0.08 | 0.08 | 41 | 1008.0 |
| 20260507200720 | 62 | 123 | 0.0 | 5.2 | 0.00 | 0.08 | 0.08 | 42 | 1008.2 |
| 20260507200220 | 62 | 97 | 1.7 | 7.0 | 0.00 | 0.08 | 0.08 | 39 | 1008.2 |
| 20260507195720 | 63 | 32 | 0.9 | 4.3 | 0.00 | 0.08 | 0.08 | 44 | 1008.3 |
| 20260507195220 | 62 | 92 | 0.0 | 4.3 | 0.00 | 0.08 | 0.08 | 43 | 1008.2 |
| 20260507194720 | 63 | 225 | 0.0 | 1.7 | 0.00 | 0.08 | 0.08 | 50 | 1008.4 |
| 20260507194220 | 62 | 91 | 0.0 | 2.6 | 0.00 | 0.08 | 0.08 | 49 | 1008.4 |
| 20260507193724 | 62 | 227 | 0.0 | 1.7 | 0.00 | 0.08 | 0.08 | 48 | 1008.5 |
| 20260507193223 | 63 | 234 | 0.0 | 1.7 | 0.00 | 0.08 | 0.08 | 49 | 1008.5 |
| 20260507192724 | 63 | 123 | 1.7 | 4.3 | 0.00 | 0.08 | 0.08 | 39 | 1008.6 |
| 20260507192220 | 63 | 52 | 0.0 | 4.3 | 0.00 | 0.08 | 0.08 | 37 | 1008.7 |
| 20260507191720 | 62 | 129 | 1.7 | 5.2 | 0.00 | 0.08 | 0.08 | 44 | 1008.8 |
| 20260507191220 | 62 | 329 | 0.0 | 0.9 | 0.00 | 0.08 | 0.08 | 42 | 1008.8 |
| 20260507190720 | 62 | 244 | 0.9 | 2.6 | 0.00 | 0.08 | 0.08 | 38 | 1008.8 |
| 20260507190222 | 62 | 130 | 0.0 | 5.2 | 0.00 | 0.08 | 0.08 | 38 | 1008.9 |
| 20260507185720 | 62 | 137 | 4.3 | 7.0 | 0.00 | 0.08 | 0.08 | 40 | 1009.1 |
| 20260507185220 | 63 | 354 | 0.0 | 3.5 | 0.00 | 0.08 | 0.08 | 38 | 1009.1 |
| 20260507184722 | 63 | 68 | 0.9 | 7.8 | 0.00 | 0.08 | 0.08 | 41 | 1009.1 |
| 20260507184220 | 63 | 139 | 5.2 | 6.1 | 0.00 | 0.08 | 0.08 | 41 | 1009.0 |
| 20260507183720 | 64 | 26 | 0.0 | 4.3 | 0.00 | 0.08 | 0.08 | 45 | 1009.0 |
| 20260507182720 | 63 | 75 | 4.3 | 5.2 | 0.00 | 0.08 | 0.08 | 40 | 1009.2 |
| 20260507182221 | 64 | 53 | 2.6 | 5.2 | 0.00 | 0.08 | 0.08 | 45 | 1009.4 |
| 20260507181722 | 63 | 298 | 1.7 | 6.1 | 0.00 | 0.08 | 0.08 | 48 | 1009.5 |
| 20260507181220 | 62 | 198 | 0.9 | 6.1 | 0.00 | 0.08 | 0.08 | 42 | 1009.5 |
| 20260507180720 | 61 | 115 | 0.0 | 7.8 | 0.00 | 0.08 | 0.08 | 42 | 1009.6 |
| 20260507180222 | 61 | 71 | 7.0 | 8.7 | 0.00 | 0.08 | 0.08 | 43 | 1009.7 |
| 20260507175723 | 61 | 108 | 0.0 | 5.2 | 0.00 | 0.08 | 0.08 | 43 | 1009.6 |
| 20260507175220 | 61 | 56 | 2.6 | 7.0 | 0.00 | 0.08 | 0.08 | 42 | 1009.7 |
| 20260507174720 | 61 | 81 | 5.2 | 5.2 | 0.00 | 0.08 | 0.08 | 43 | 1009.8 |
| 20260507174220 | 61 | 149 | 1.7 | 6.1 | 0.00 | 0.08 | 0.08 | 42 | 1009.8 |
| 20260507173720 | 61 | 147 | 2.6 | 7.8 | 0.00 | 0.08 | 0.08 | 43 | 1009.9 |
| 20260507173220 | 61 | 188 | 0.0 | 5.2 | 0.00 | 0.08 | 0.08 | 45 | 1009.8 |
| 20260507172720 | 61 | 139 | 4.3 | 4.3 | 0.00 | 0.08 | 0.08 | 42 | 1009.7 |
| 20260507172220 | 61 | 22 | 1.7 | 5.2 | 0.00 | 0.08 | 0.08 | 45 | 1009.8 |
| 20260507171722 | 60 | 71 | 5.2 | 8.7 | 0.00 | 0.08 | 0.08 | 50 | 1009.9 |
| 20260507171220 | 60 | 135 | 6.1 | 7.0 | 0.00 | 0.08 | 0.08 | 44 | 1010.0 |
| 20260507170720 | 60 | 181 | 0.9 | 9.6 | 0.00 | 0.08 | 0.08 | 48 | 1010.1 |
| 20260507170223 | 60 | 209 | 0.9 | 5.2 | 0.00 | 0.08 | 0.08 | 44 | 1010.1 |
| 20260507165720 | 59 | 158 | 4.3 | 8.7 | 0.00 | 0.08 | 0.08 | 41 | 1010.4 |
| 20260507165220 | 60 | 194 | 1.7 | 7.8 | 0.00 | 0.08 | 0.08 | 47 | 1010.4 |
| 20260507164720 | 59 | 60 | 2.6 | 6.1 | 0.00 | 0.08 | 0.08 | 51 | 1010.4 |
| 20260507164220 | 59 | 115 | 2.6 | 6.1 | 0.00 | 0.08 | 0.08 | 48 | 1010.5 |
| 20260507163720 | 59 | 270 | 0.0 | 3.5 | 0.00 | 0.08 | 0.08 | 49 | 1010.5 |
| 20260507163224 | 59 | 11 | 0.0 | 5.2 | 0.00 | 0.08 | 0.08 | 55 | 1010.7 |
| 20260507162720 | 58 | 258 | 0.9 | 3.5 | 0.00 | 0.08 | 0.08 | 52 | 1010.8 |
| 20260507162220 | 58 | 302 | 2.6 | 3.5 | 0.00 | 0.08 | 0.08 | 56 | 1010.9 |
| 20260507161725 | 58 | 317 | 0.0 | 1.7 | 0.00 | 0.08 | 0.08 | 56 | 1011.0 |
| 20260507161220 | 57 | 309 | 0.0 | 1.7 | 0.00 | 0.08 | 0.08 | 57 | 1011.1 |
| 20260507160720 | 57 | 146 | 0.0 | 4.3 | 0.00 | 0.08 | 0.08 | 54 | 1011.0 |
| 20260507160226 | 57 | 26 | 0.0 | 3.5 | 0.00 | 0.08 | 0.08 | 59 | 1011.1 |
| 20260507155725 | 57 | 348 | 0.0 | 4.3 | 0.00 | 0.08 | 0.08 | 58 | 1011.3 |
| 20260507155220 | 57 | 88 | 3.5 | 4.3 | 0.00 | 0.08 | 0.08 | 54 | 1011.3 |
| 20260507154220 | 56 | 147 | 0.0 | 4.3 | 0.00 | 0.08 | 0.08 | 55 | 1011.4 |
| 20260507153720 | 56 | 199 | 0.0 | 5.2 | 0.00 | 0.08 | 0.08 | 54 | 1011.4 |
| 20260507153221 | 56 | 168 | 0.9 | 4.3 | 0.00 | 0.09 | 0.08 | 57 | 1011.5 |
| 20260507152720 | 55 | 80 | 1.7 | 1.7 | 0.00 | 0.09 | 0.08 | 57 | 1011.6 |
| 20260507152220 | 55 | 81 | 1.7 | 5.2 | 0.00 | 0.09 | 0.08 | 56 | 1011.6 |
| 20260507151720 | 55 | 143 | 2.6 | 4.3 | 0.00 | 0.09 | 0.08 | 60 | 1011.7 |
| 20260507151221 | 55 | 101 | 0.0 | 2.6 | 0.00 | 0.09 | 0.08 | 60 | 1011.6 |
| 20260507150721 | 55 | 71 | 0.0 | 0.0 | 0.00 | 0.09 | 0.08 | 61 | 1011.8 |
| 20260507150224 | 55 | 71 | 0.0 | 3.5 | 0.00 | 0.09 | 0.08 | 58 | 1011.8 |
| 20260507145720 | 54 | 85 | 3.5 | 5.2 | 0.00 | 0.09 | 0.08 | 60 | 1011.9 |
| 20260507145221 | 54 | 157 | 0.0 | 2.6 | 0.00 | 0.09 | 0.08 | 63 | 1012.0 |
| 20260507144720 | 54 | 150 | 0.9 | 4.3 | 0.00 | 0.09 | 0.08 | 60 | 1011.9 |
| 20260507144220 | 54 | 37 | 0.0 | 2.6 | 0.00 | 0.09 | 0.08 | 61 | 1012.0 |
| 20260507143720 | 54 | 90 | 0.0 | 4.3 | 0.00 | 0.09 | 0.08 | 61 | 1011.9 |
| 20260507143220 | 54 | 102 | 0.9 | 5.2 | 0.00 | 0.14 | 0.08 | 63 | 1011.7 |
| 20260507142720 | 54 | 84 | 1.7 | 2.6 | 0.00 | 0.14 | 0.08 | 62 | 1011.9 |
| 20260507142220 | 54 | 97 | 0.9 | 3.5 | 0.00 | 0.14 | 0.08 | 63 | 1012.0 |
| 20260507141721 | 53 | 74 | 2.6 | 5.2 | 0.00 | 0.14 | 0.08 | 62 | 1012.1 |
| 20260507141220 | 54 | 157 | 0.0 | 3.5 | 0.00 | 0.14 | 0.08 | 63 | 1012.2 |
| 20260507140720 | 53 | 111 | 1.7 | 6.1 | 0.00 | 0.14 | 0.08 | 61 | 1012.2 |
| 20260507140221 | 53 | 105 | 3.5 | 6.1 | 0.00 | 0.14 | 0.08 | 61 | 1012.3 |
| 20260507135720 | 54 | 125 | 0.9 | 2.6 | 0.00 | 0.14 | 0.08 | 62 | 1012.5 |
| 20260507135220 | 54 | 102 | 0.9 | 5.2 | 0.00 | 0.14 | 0.08 | 61 | 1012.5 |
| 20260507134722 | 53 | 56 | 3.5 | 7.0 | 0.00 | 0.14 | 0.08 | 64 | 1012.5 |
| 20260507134221 | 53 | 71 | 6.1 | 6.1 | 0.00 | 0.14 | 0.08 | 60 | 1012.3 |
| 20260507133720 | 53 | 87 | 0.0 | 5.2 | 0.00 | 0.14 | 0.08 | 65 | 1012.4 |
| 20260507133221 | 53 | 135 | 2.6 | 3.5 | 0.00 | 0.23 | 0.08 | 69 | 1012.4 |
| 20260507132723 | 53 | 80 | 0.0 | 3.5 | 0.00 | 0.23 | 0.08 | 66 | 1012.4 |
| 20260507132221 | 54 | 90 | 0.0 | 4.3 | 0.00 | 0.23 | 0.08 | 68 | 1012.4 |
| 20260507131720 | 53 | 113 | 0.0 | 1.7 | 0.00 | 0.23 | 0.08 | 69 | 1012.4 |
| 20260507131221 | 53 | 71 | 1.7 | 3.5 | 0.00 | 0.23 | 0.08 | 67 | 1012.4 |
| 20260507130720 | 53 | 66 | 0.0 | 0.0 | 0.00 | 0.23 | 0.08 | 71 | 1012.4 |
| 20260507125720 | 52 | 66 | 0.0 | 0.0 | 0.00 | 0.23 | 0.08 | 73 | 1012.3 |
| 20260507125221 | 52 | 66 | 0.0 | 0.0 | 0.00 | 0.23 | 0.08 | 71 | 1012.3 |
| 20260507124720 | 52 | 66 | 0.0 | 0.0 | 0.00 | 0.23 | 0.08 | 71 | 1012.2 |
| 20260507124220 | 52 | 66 | 0.0 | 4.3 | 0.00 | 0.23 | 0.08 | 72 | 1012.1 |
| 20260507123721 | 51 | 116 | 2.6 | 4.3 | 0.00 | 0.23 | 0.08 | 71 | 1012.0 |
| 20260507123222 | 52 | 59 | 0.0 | 3.5 | 0.00 | 0.25 | 0.08 | 74 | 1012.1 |
| 20260507122720 | 51 | 68 | 0.0 | 4.3 | 0.00 | 0.25 | 0.08 | 75 | 1012.0 |
| 20260507122221 | 51 | 68 | 0.0 | 2.6 | 0.00 | 0.25 | 0.08 | 78 | 1012.1 |
| 20260507121723 | 51 | 29 | 0.0 | 3.5 | 0.00 | 0.25 | 0.08 | 81 | 1012.1 |
| 20260507121220 | 51 | 30 | 0.0 | 0.0 | 0.00 | 0.25 | 0.08 | 80 | 1012.0 |
| 20260507120721 | 51 | 30 | 0.0 | 2.6 | 0.00 | 0.25 | 0.08 | 82 | 1012.1 |
| 20260507120222 | 51 | 323 | 0.0 | 0.0 | 0.00 | 0.25 | 0.08 | 84 | 1012.0 |
| 20260507115720 | 51 | 323 | 0.0 | 0.0 | 0.01 | 0.25 | 0.08 | 85 | 1012.0 |
| 20260507115221 | 51 | 323 | 0.0 | 0.0 | 0.01 | 0.25 | 0.08 | 88 | 1012.0 |
| 20260507114720 | 51 | 323 | 0.0 | 0.0 | 0.01 | 0.25 | 0.08 | 88 | 1011.9 |
| 20260507114221 | 50 | 323 | 0.0 | 0.0 | 0.01 | 0.25 | 0.08 | 89 | 1011.9 |
| 20260507113724 | 50 | 323 | 0.0 | 0.0 | 0.01 | 0.25 | 0.08 | 90 | 1012.0 |
| 20260507113234 | 50 | 323 | 0.0 | 0.0 | 0.01 | 0.25 | 0.08 | 90 | 1012.0 |
| 20260507112721 | 50 | 323 | 0.0 | 0.0 | 0.01 | 0.25 | 0.08 | 91 | 1011.9 |
| 20260507112221 | 50 | 323 | 0.0 | 3.5 | 0.01 | 0.25 | 0.08 | 92 | 1012.0 |
| 20260507111723 | 51 | 8 | 0.0 | 0.0 | 0.01 | 0.25 | 0.08 | 92 | 1012.0 |
| 20260507111220 | 50 | 8 | 0.0 | 1.7 | 0.01 | 0.25 | 0.08 | 92 | 1011.8 |
| 20260507110721 | 50 | 21 | 0.9 | 1.7 | 0.01 | 0.25 | 0.08 | 93 | 1011.8 |
| 20260507110221 | 50 | 73 | 0.0 | 0.0 | 0.01 | 0.25 | 0.08 | 93 | 1011.7 |
| 20260507105721 | 50 | 73 | 0.0 | 0.0 | 0.00 | 0.24 | 0.07 | 93 | 1011.6 |
| 20260507105223 | 50 | 73 | 0.0 | 0.0 | 0.00 | 0.24 | 0.07 | 93 | 1011.7 |
| 20260507104723 | 50 | 73 | 0.0 | 0.0 | 0.00 | 0.24 | 0.07 | 93 | 1011.6 |
| 20260507104222 | 50 | 73 | 0.0 | 2.6 | 0.00 | 0.24 | 0.07 | 93 | 1011.5 |
| 20260507103721 | 50 | 28 | 0.0 | 3.5 | 0.00 | 0.24 | 0.07 | 95 | 1011.5 |
| 20260507103220 | 51 | 323 | 0.0 | 0.0 | 0.00 | 0.25 | 0.07 | 95 | 1011.4 |
| 20260507102720 | 51 | 323 | 0.0 | 0.0 | 0.00 | 0.25 | 0.07 | 95 | 1011.3 |
| 20260507102222 | 52 | 323 | 0.0 | 0.0 | 0.00 | 0.25 | 0.07 | 96 | 1011.2 |
| 20260507101721 | 52 | 323 | 0.0 | 0.0 | 0.00 | 0.25 | 0.07 | 96 | 1011.1 |
| 20260507101220 | 52 | 323 | 0.0 | 0.0 | 0.00 | 0.25 | 0.07 | 96 | 1011.2 |
| 20260507100720 | 52 | 323 | 0.0 | 0.0 | 0.00 | 0.25 | 0.07 | 96 | 1011.0 |
| 20260507100331 | 52 | 323 | 0.0 | 0.0 | 0.00 | 0.25 | 0.07 | 96 | 1011.0 |
| 20260507100222 | 52 | 323 | 0.0 | 0.0 | 0.00 | 0.25 | 0.07 | 96 | 1011.0 |
| 20260507095720 | 52 | 323 | 0.0 | 0.0 | 0.00 | 0.25 | 0.07 | 96 | 1011.0 |
| 20260507095223 | 53 | 323 | 0.0 | 0.0 | 0.00 | 0.25 | 0.07 | 96 | 1010.8 |
| 20260507094721 | 53 | 323 | 0.0 | 0.0 | 0.00 | 0.25 | 0.07 | 96 | 1011.1 |
| 20260507094221 | 53 | 323 | 0.0 | 0.0 | 0.00 | 0.25 | 0.07 | 96 | 1011.2 |
| 20260507093720 | 53 | 323 | 0.0 | 0.0 | 0.00 | 0.25 | 0.07 | 96 | 1011.1 |
| 20260507093223 | 53 | 323 | 0.0 | 0.0 | 0.00 | 0.25 | 0.07 | 96 | 1011.1 |
| 20260507092721 | 53 | 323 | 0.0 | 0.0 | 0.00 | 0.25 | 0.07 | 96 | 1011.2 |
| 20260507092221 | 53 | 323 | 0.0 | 0.0 | 0.00 | 0.25 | 0.07 | 95 | 1011.1 |
| 20260507091721 | 53 | 323 | 0.0 | 0.0 | 0.00 | 0.25 | 0.07 | 95 | 1011.2 |
| 20260507091221 | 53 | 323 | 0.0 | 0.0 | 0.00 | 0.25 | 0.07 | 95 | 1010.9 |
| 20260507090721 | 53 | 323 | 0.0 | 0.0 | 0.00 | 0.25 | 0.07 | 95 | 1010.9 |
| 20260507090222 | 53 | 323 | 0.0 | 0.0 | 0.00 | 0.25 | 0.07 | 95 | 1010.8 |
| 20260507085720 | 53 | 323 | 0.0 | 0.0 | 0.00 | 0.25 | 0.07 | 95 | 1010.6 |
| 20260507085256 | 52 | 323 | 0.0 | 0.0 | 0.00 | 0.25 | 0.07 | 95 | 1010.5 |
| 20260507085220 | 52 | 323 | 0.0 | 0.0 | 0.00 | 0.25 | 0.07 | 95 | 1010.5 |
| 20260507084721 | 53 | 323 | 0.0 | 0.0 | 0.00 | 0.25 | 0.07 | 95 | 1010.6 |
| 20260507084315 | 53 | 323 | 0.0 | 0.0 | 0.00 | 0.25 | 0.07 | 95 | 1010.6 |
| 20260507084220 | 53 | 323 | 0.0 | 0.0 | 0.00 | 0.25 | 0.07 | 95 | 1010.6 |
| 20260507083753 | 53 | 323 | 0.0 | 0.0 | 0.00 | 0.25 | 0.07 | 95 | 1010.5 |
| 20260507083720 | 53 | 323 | 0.0 | 0.0 | 0.00 | 0.25 | 0.07 | 95 | 1010.5 |
| 20260507083222 | 53 | 323 | 0.0 | 0.0 | 0.00 | 0.25 | 0.07 | 95 | 1010.3 |
| 20260507082720 | 53 | 323 | 0.0 | 0.0 | 0.01 | 0.25 | 0.07 | 95 | 1010.2 |
| 20260507082221 | 52 | 323 | 0.0 | 0.0 | 0.01 | 0.25 | 0.07 | 95 | 1010.1 |
| 20260507081722 | 52 | 323 | 0.0 | 0.0 | 0.01 | 0.25 | 0.07 | 95 | 1010.1 |
| 20260507081221 | 52 | 323 | 0.0 | 0.0 | 0.01 | 0.25 | 0.07 | 95 | 1010.1 |
| 20260507080721 | 53 | 323 | 0.0 | 0.0 | 0.01 | 0.25 | 0.07 | 95 | 1010.2 |
| 20260507080221 | 53 | 97 | 0.0 | 0.0 | 0.01 | 0.25 | 0.07 | 95 | 1010.0 |
| 20260507075721 | 52 | 97 | 0.0 | 5.2 | 0.01 | 0.25 | 0.07 | 95 | 1009.8 |
| 20260507075223 | 52 | 75 | 0.9 | 4.3 | 0.01 | 0.25 | 0.07 | 95 | 1009.7 |
| 20260507074723 | 53 | 130 | 0.9 | 4.3 | 0.01 | 0.25 | 0.07 | 95 | 1009.7 |
| 20260507074221 | 52 | 101 | 1.7 | 6.1 | 0.01 | 0.25 | 0.07 | 94 | 1009.9 |
| 20260507073721 | 52 | 118 | 1.7 | 5.2 | 0.02 | 0.25 | 0.07 | 94 | 1009.9 |
| 20260507073221 | 52 | 111 | 0.9 | 6.1 | 0.02 | 0.25 | 0.07 | 93 | 1009.9 |
| 20260507072721 | 53 | 67 | 1.7 | 4.3 | 0.01 | 0.24 | 0.06 | 93 | 1010.1 |
| 20260507072221 | 52 | 95 | 2.6 | 5.2 | 0.01 | 0.24 | 0.06 | 92 | 1010.3 |
| 20260507071721 | 53 | 50 | 0.0 | 4.3 | 0.01 | 0.24 | 0.06 | 92 | 1010.2 |
| 20260507071221 | 53 | 32 | 3.5 | 7.0 | 0.01 | 0.24 | 0.06 | 92 | 1010.2 |
| 20260507070721 | 53 | 102 | 4.3 | 7.0 | 0.01 | 0.24 | 0.06 | 91 | 1010.2 |
| 20260507070224 | 53 | 91 | 0.9 | 7.8 | 0.01 | 0.24 | 0.06 | 91 | 1010.2 |
| 20260507065721 | 53 | 87 | 6.1 | 7.0 | 0.01 | 0.24 | 0.06 | 90 | 1010.2 |
| 20260507065221 | 53 | 101 | 5.2 | 10.4 | 0.01 | 0.24 | 0.06 | 90 | 1010.3 |
| 20260507064221 | 54 | 143 | 1.7 | 7.0 | 0.01 | 0.24 | 0.06 | 92 | 1010.1 |
| 20260507063721 | 54 | 113 | 3.5 | 7.0 | 0.00 | 0.23 | 0.05 | 92 | 1010.0 |
| 20260507063221 | 54 | 67 | 4.3 | 7.0 | 0.00 | 0.23 | 0.05 | 92 | 1010.3 |
| 20260507062721 | 54 | 88 | 5.2 | 7.8 | 0.00 | 0.23 | 0.05 | 92 | 1010.1 |
| 20260507062221 | 55 | 63 | 2.6 | 7.0 | 0.00 | 0.23 | 0.05 | 94 | 1010.1 |
| 20260507061722 | 55 | 92 | 2.6 | 6.1 | 0.00 | 0.23 | 0.05 | 94 | 1010.1 |
| 20260507061221 | 55 | 70 | 4.3 | 6.1 | 0.01 | 0.23 | 0.05 | 95 | 1010.0 |
| 20260507060722 | 55 | 74 | 4.3 | 4.3 | 0.02 | 0.23 | 0.05 | 95 | 1010.0 |
| 20260507060225 | 55 | 63 | 0.0 | 0.0 | 0.03 | 0.23 | 0.05 | 95 | 1010.6 |
| 20260507055721 | 55 | 63 | 0.0 | 0.9 | 0.03 | 0.23 | 0.05 | 95 | 1010.5 |
| 20260507055223 | 55 | 64 | 0.0 | 2.6 | 0.03 | 0.23 | 0.05 | 95 | 1010.3 |
| 20260507054721 | 56 | 56 | 0.0 | 0.0 | 0.03 | 0.23 | 0.05 | 95 | 1010.2 |
| 20260507054221 | 56 | 56 | 0.0 | 2.6 | 0.03 | 0.23 | 0.05 | 95 | 1009.9 |
| 20260507053721 | 55 | 45 | 0.0 | 0.0 | 0.03 | 0.23 | 0.05 | 95 | 1010.2 |
| 20260507053221 | 56 | 45 | 0.0 | 3.5 | 0.05 | 0.23 | 0.05 | 95 | 1010.3 |
| 20260507052721 | 56 | 56 | 0.0 | 3.5 | 0.05 | 0.23 | 0.05 | 94 | 1010.2 |
| 20260507052222 | 56 | 68 | 0.0 | 0.0 | 0.05 | 0.23 | 0.05 | 94 | 1010.4 |
| 20260507051725 | 56 | 68 | 0.0 | 0.9 | 0.05 | 0.23 | 0.05 | 94 | 1010.3 |
| 20260507051221 | 56 | 68 | 0.9 | 3.5 | 0.03 | 0.21 | 0.03 | 93 | 1010.2 |
| 20260507050721 | 56 | 111 | 0.0 | 5.2 | 0.03 | 0.21 | 0.03 | 92 | 1010.4 |
| 20260507050222 | 56 | 74 | 0.0 | 4.3 | 0.02 | 0.20 | 0.02 | 91 | 1010.4 |
| 20260507045721 | 56 | 29 | 0.0 | 5.2 | 0.02 | 0.20 | 0.02 | 90 | 1010.5 |
| 20260507045223 | 57 | 92 | 0.0 | 8.7 | 0.02 | 0.20 | 0.02 | 88 | 1010.5 |
| 20260507044723 | 58 | 57 | 0.0 | 7.8 | 0.02 | 0.20 | 0.02 | 86 | 1010.1 |
| 20260507044221 | 58 | 45 | 2.6 | 3.5 | 0.02 | 0.20 | 0.02 | 83 | 1010.1 |
| 20260507043721 | 58 | 153 | 1.7 | 5.2 | 0.00 | 0.18 | 0.00 | 82 | 1009.7 |
| 20260507043224 | 58 | 104 | 0.0 | 5.2 | 0.00 | 0.18 | 0.00 | 82 | 1010.0 |
| 20260507042722 | 59 | 97 | 4.3 | 9.6 | 0.00 | 0.18 | 0.00 | 81 | 1009.7 |
| 20260507042221 | 59 | 43 | 0.0 | 9.6 | 0.00 | 0.18 | 0.00 | 80 | 1009.9 |